Location: Holt (historical)
(35.6187°N, 90.0006°W)
Time: 01:40:55
(UTC+00:00)

Daily predictions for brighter satellites

Satellite Brightness Start Highest point End
(mag) Time Altitude Azimuth Time Altitude Azimuth Time Altitude Azimuth
Cosmos 2195 Rocket 4.5 01:37:54 10° S 01:44:00 81° E 01:50:10 10° N
CSL-04 Rocket 3.9 01:39:30 10° SSE 01:44:36 53° ENE 01:49:46 10° N
Okean O Rocket 2.1 01:41:49 10° SE 01:45:58 42° ENE 01:50:06 10° N
Tiangong -0.6 01:43:21 10° NW 01:46:14 31° N 01:49:07 10° ENE
Cosmos 1470 Rocket 4.5 01:44:04 10° NNE 01:47:57 31° ENE 01:51:46 10° SE
NOSS 3-4 (A) 4.2 01:42:18 10° NNW 01:49:35 82° WSW 01:57:54 10° SSE
NOSS 3-4 (C) 4.1 01:42:20 10° NNW 01:49:38 83° WSW 01:57:53 10° SSE
ASTRO E2 4.2 01:48:06 10° SSW 01:50:04 14° SSE 01:52:01 10° ESE
COSMOS 2406 3.2 01:48:37 10° SSW 01:54:21 84° ESE 02:00:08 10° NNE
Cosmos 1666 Rocket 3.5 01:50:53 10° N 01:55:14 83° E 01:59:36 10° S
Cosmos 1766 3.7 01:51:59 10° N 01:55:33 41° E 01:59:05 10° SSE
Cosmos 1092 Rocket 4.1 01:49:19 10° S 01:55:39 83° E 02:02:01 10° N
Cosmos 1674 2.8 01:53:27 10° SSE 01:56:45 43° E 02:00:03 10° NNE
CSL-04 Debris 4.2 01:52:08 10° SSE 01:57:33 78° ENE 02:02:57 10° N
Cosmos 1980 Rocket 2.4 01:52:27 10° NNW 01:58:06 62° ENE 02:03:40 10° SSE
SPOT 1/Viking Rocket 4.3 01:54:20 10° S 01:59:19 52° W 02:04:20 10° NNW
Cosmos 1763 Rocket 4.2 01:55:46 10° N 02:00:37 37° ENE 02:05:10 11° SE
ATLAS CENTAUR R/B 2.8 02:01:45 11° ESE 02:02:26 12° ESE 02:03:46 10° E
USA 234 3.2 02:00:40 10° NE 02:07:10 66° SE 02:13:38 10° SSW
IRIDIUM 114 4.4 02:08:52 10° N 02:14:02 60° E 02:19:09 10° SSE
Resurs 01 Rocket 2.0 02:10:29 10° S 02:14:50 65° W 02:19:13 10° NNW
Terra 3.5 02:16:12 12° ESE 02:18:53 18° ENE 02:22:05 10° NNE
IRIDIUM 103 4.3 02:17:58 10° N 02:23:12 75° E 02:28:23 10° S
ARGOS Delta rocket 4.3 02:23:05 17° SE 02:26:09 38° ENE 02:30:14 10° N
Lacrosse 5 rocket 3.9 02:24:30 10° W 02:26:13 12° WSW 02:27:55 10° SW
Cosmos 1470 3.0 02:23:47 10° N 02:27:20 45° E 02:29:33 20° SE
CZ-4 R/B 4.0 02:26:46 10° SW 02:29:30 18° W 02:32:17 10° NW
CZ-4B R/B 4.3 02:25:36 10° S 02:30:33 41° W 02:35:34 10° NNW
Cosmos 468 Rocket 4.4 02:26:41 10° N 02:31:44 47° ENE 02:35:01 20° SE
KORONAS-FOTON 4.0 02:29:32 10° SSW 02:33:12 70° W 02:36:56 10° N
Cosmos 1842 3.9 02:35:21 10° SSW 02:38:54 52° W 02:42:29 10° N
SJ 16-02 3.4 02:40:04 12° E 02:40:04 12° E 02:41:07 10° ENE
ATLAS 2AS CENTAUR R/B 4.4 02:40:18 10° N 02:44:59 19° NE 02:49:33 10° E
IRS-1C Rocket 4.2 02:45:33 22° SSE 02:48:51 63° ENE 02:54:03 10° N
In-Cosmos 22 4.1 02:43:43 10° S 02:49:22 74° E 02:54:55 10° NNE
Cosmos 2360 Rocket 4.0 02:45:38 10° NNE 02:49:26 18° NE 02:52:15 13° E
Cosmos 540 Rocket 3.4 02:46:02 10° NNW 02:51:12 83° ENE 02:54:15 25° SSE
SPOT 3 Rocket 4.5 02:51:37 23° ESE 02:53:47 32° ENE 02:58:20 10° N
RESURS DK-1 4.0 02:51:25 10° N 02:54:26 20° ENE 02:55:35 18° E
Cosmos 968 Rocket 4.1 02:57:17 29° SE 02:58:48 35° E 03:03:27 10° NE
SL-16 R/B 2.7 02:55:15 10° N 03:00:41 45° ENE 03:03:14 28° ESE
MOS 1 Rocket 4.1 02:59:27 28° SE 03:01:48 44° ENE 03:06:50 10° N
Cosmos 1741 Rocket 4.1 02:58:35 22° S 03:01:52 55° ESE 03:07:02 10° NNE
Okean-O 3.4 02:58:43 16° S 03:01:58 48° W 03:06:15 10° NNW
Cosmos 2333 Rocket 3.8 02:58:17 10° N 03:02:37 21° ENE 03:05:07 16° E
Cosmos 1707 4.3 03:00:42 10° SW 03:03:56 31° W 03:07:11 10° NNW
SeaSat 1 2.8 03:02:21 30° ESE 03:04:29 52° ENE 03:09:15 10° NNW
Cosmos 1733 Rocket 4.4 03:01:48 10° NNE 03:05:19 23° ENE 03:05:48 22° E
Atlas Centaur 2 3.1 03:01:25 10° W 03:09:24 59° S 03:14:18 26° ESE
Cosmos 1758 4.2 03:06:39 10° NNE 03:10:08 30° ENE 03:10:17 30° E
Cosmos 1833 4.5 03:08:31 31° SSE 03:10:43 45° ESE 03:16:04 10° NE
USA 245 2.9 03:10:21 58° SE 03:10:50 70° ENE 03:14:47 10° N
Cosmos 381 Rocket 4.5 03:06:52 10° NNW 03:13:14 82° WSW 03:16:43 28° S
SPOT 5 3.2 03:14:18 25° SSW 03:16:32 50° W 03:20:45 10° NNW
IRS-1A Rocket 4.3 03:14:38 27° S 03:17:43 74° WSW 03:23:13 10° NNW
SL-08 ROCKET BODY 4.4 03:14:48 18° S 03:19:32 84° W 03:25:39 10° N
Cosmos 2228 Rocket 3.1 03:18:36 45° SSE 03:19:48 65° E 03:24:19 10° NNE
Okean O Rocket 4.2 03:20:01 10° SW 03:22:23 14° W 03:24:45 10° WNW
Tiangong -1.8 03:20:02 10° WNW 03:22:45 59° W 03:22:45 59° W
Cosmos 1356 Rocket 3.3 03:25:55 58° SSE 03:26:38 76° E 03:30:50 10° NNE
Spot 1 4.3 03:23:04 10° NNE 03:27:38 58° ESE 03:28:28 50° SE
Cosmos 1869 Rocket 3.9 03:24:22 10° NNW 03:28:45 61° W 03:30:17 37° SSW
Cosmos 1400 Rocket 3.8 03:28:43 23° SW 03:30:43 43° W 03:34:26 10° N
Meteor 1-12 Rocket 4.3 03:24:44 10° N 03:30:46 74° E 03:32:55 42° SSE
S3M 4.0 03:25:13 10° N 03:31:35 81° W 03:34:41 32° S
ERS-1 Rocket 3.2 03:30:43 34° SSW 03:32:46 62° W 03:37:45 10° NNW
Cosmos 1655 Rocket 4.1 03:34:27 26° SSW 03:38:17 80° W 03:44:43 10° N
Meteor 1-22 Rocket 4.4 03:33:41 10° NNW 03:39:23 71° W 03:41:50 36° S
ATLAS CENTAUR R/B 2.6 03:36:30 10° WSW 03:39:40 33° NW 03:42:55 10° N
Cosmos 841 Rocket 3.4 03:35:24 10° NNW 03:40:40 83° WSW 03:41:59 52° S
Cosmos 2322 Rocket 2.3 03:38:00 10° NNW 03:43:40 66° ENE 03:44:58 50° ESE
Cosmos 1300 2.8 03:40:14 10° N 03:43:15 61° N 03:43:15 61° N
Spot 2 Rocket 3.6 03:42:27 44° SSW 03:43:57 67° W 03:49:00 10° NNW
Aureole 3 3.4 03:48:02 65° NE 03:48:02 65° NE 03:51:57 10° N
Cosmos 1315 Rocket 4.0 03:49:43 33° NE 03:49:43 33° NE 03:52:19 10° NNE
Meteor 2-10 Rocket 3.8 03:49:40 10° NNW 03:55:07 66° W 03:56:28 48° SSW
Cosmos 2278 4.5 03:49:57 10° NW 03:55:19 44° WSW 03:57:04 34° SSW
Cosmos 1862 Rocket 3.7 03:55:14 60° WSW 03:55:44 67° W 04:00:07 10° N
Cosmos 1953 4.1 03:52:39 10° NNE 03:54:38 21° NE 03:54:38 21° NE
Terra 2.8 03:54:53 33° SW 03:56:08 39° W 04:00:33 10° NNW
Meteor 1-21 4.4 03:54:03 36° SSW 03:56:26 71° W 04:02:15 10° N
Cosmos 1244 Rocket 4.5 03:56:23 53° SE 03:57:40 66° E 04:03:54 10° NNE
Landsat 5 4.0 04:01:38 10° N 04:05:35 52° WNW 04:05:57 50° W
Okean 3 3.8 04:08:31 57° WNW 04:08:31 57° WNW 04:12:30 10° N
Ariane Rocket 3.9 04:07:33 35° SW 04:08:43 40° W 04:13:30 10° NNW
Cosmos 2219 Rocket 2.9 04:03:54 10° N 04:09:15 40° ENE 04:09:56 39° E
CZ-2C R/B 4.5 04:06:54 10° NNE 04:10:01 39° NE 04:10:01 39° NE
BlueWalker 3 4.4 04:15:31 14° NE 04:15:31 14° NE 04:16:07 10° NE
SJ 16-02 2.2 04:16:45 42° W 04:17:12 44° WNW 04:21:20 10° N
H-2A R/B 4.5 04:22:54 20° NE 04:22:54 20° NE 04:25:19 10° NNE
COSMOS 2455 3.7 04:24:43 36° E 04:24:43 36° E 04:28:59 10° NE
CZ-4C R/B 3.8 04:28:06 17° ENE 04:28:06 17° ENE 04:29:33 10° NE
SL-08 R/B 4.3 04:25:30 70° S 04:26:16 89° E 04:32:23 10° N
Cosmos 1346 Rocket 4.3 04:23:29 10° NNW 04:26:15 30° WNW 04:26:15 30° WNW
ARIANE 5 R/B 3.6 04:31:12 40° NNE 04:31:12 40° NNE 04:34:22 10° N
RESURS DK-1 4.1 04:28:38 10° NW 04:31:10 25° W 04:31:10 25° W
Cosmos 2360 Rocket 2.3 04:28:15 10° NNW 04:33:49 60° WSW 04:34:00 60° WSW
ATLAS 2AS CENTAUR R/B 2.4 04:29:58 10° NNW 04:36:44 87° WSW 04:37:28 73° SSE
SeaSat 1 4.5 04:42:03 17° WSW 04:42:07 17° WSW 04:45:16 10° WNW
SL-16 R/B 3.9 04:40:15 10° NW 04:44:22 21° W 04:45:05 20° WSW
Cosmos 1455 4.2 04:42:32 10° N 04:44:05 24° NNW 04:44:05 24° NNW
USA 281 3.2 04:45:41 62° ESE 04:46:33 69° ENE 04:53:05 10° NNW
SL-24 R/B - RUBIN 2 4.5 04:40:09 10° NNW 04:46:37 64° ENE 04:47:01 62° ENE
Cosmos 2333 Rocket 2.7 04:41:36 10° NNW 04:47:07 51° WSW 04:47:07 51° WSW
Okean 1-7 4.4 04:47:58 33° WNW 04:47:58 33° WNW 04:51:32 10° NNW
CZ-2C R/B 3.4 04:50:23 67° ENE 04:50:23 67° ENE 05:02:27 10° N
GP-B 4.0 04:50:10 10° N 04:53:24 46° NNW 04:53:24 46° NNW
Atlas Centaur 2 3.8 04:50:49 10° W 04:56:31 35° SW 04:56:31 35° SW
Meteor 1-24 Rocket 4.3 05:08:46 48° ENE 05:08:46 48° ENE 05:13:25 10° NNE
Cosmos 2237 Rocket 3.9 05:04:06 10° N 05:08:29 22° ENE 05:09:21 22° ENE
Cosmos 2227 Rocket 3.9 05:10:41 22° ENE 05:10:41 22° ENE 05:13:23 10° NE
Cosmos 1745 Rocket 4.0 05:08:42 67° WSW 05:09:05 69° W 05:15:26 10° N
Cosmos 2322 3.8 05:05:21 10° NNW 05:10:29 70° NNE 05:10:29 70° NNE
Cosmos 839 Rocket 4.1 05:06:03 10° NW 05:12:09 62° W 05:12:09 62° W
Cosmos 2208 Rocket 4.5 05:09:54 10° NNW 05:14:06 55° NNE 05:14:06 55° NNE
H-2A R/B 4.5 05:13:26 10° NE 05:14:25 15° NE 05:14:25 15° NE
ALOS 2 4.0 05:23:09 36° NNE 05:23:09 36° NNE 05:25:55 10° N
Nadezhda 1 Rocket 4.1 05:18:22 10° NNW 05:24:27 62° W 05:24:27 62° W
Cosmos 2322 Rocket 4.4 05:24:09 10° WNW 05:26:46 14° W 05:26:46 14° W
Cosmos 2297 Rocket 2.5 05:29:40 60° NNE 05:29:40 60° NNE 05:34:17 10° NNE
CENTAUR R/B 3.6 05:33:38 29° ENE 05:33:38 29° ENE 05:37:23 10° NE
CZ-3 Stage 3 3.7 05:09:07 10° W 05:35:29 55° SSW 05:35:53 55° SSW
Meteor 2-5 Rocket 3.9 05:41:48 71° NNW 05:41:48 71° NNW 05:47:09 10° N
COSMOS 2428 3.4 05:46:49 10° NNW 05:51:11 48° WNW 05:51:11 48° WNW
Cosmos 2219 Rocket 3.9 05:48:26 10° NW 05:51:37 22° W 05:51:37 22° W
Cosmos 2263 Rocket 3.8 06:03:48 24° ENE 06:03:48 24° ENE 06:06:58 10° NE
COSMOS 2455 4.3 06:07:48 26° W 06:09:23 29° NW 06:14:36 10° N
SL-12 R/B(2) 4.0 06:09:01 72° S 06:09:51 79° ESE 06:18:56 10° NE
NOSS 0 Rocket 4.2 06:04:44 10° NNW 06:10:02 59° WNW 06:10:02 59° WNW
CZ-4C R/B 3.6 06:13:08 23° NW 06:13:40 23° NW 06:17:52 10° N
NOSS 3-2 (A) 4.1 06:18:58 39° ENE 06:18:58 39° ENE 06:22:48 10° NE
Nadezhda 3 Rocket 4.4 06:14:03 10° N 06:20:06 50° E 06:20:15 50° E
Cosmos 2184 Rocket 4.0 06:22:41 81° NW 06:22:41 81° NW 06:28:49 10° N
Meteor 2-11 Rocket 4.5 06:27:04 70° ENE 06:27:04 70° ENE 06:32:42 10° N
Cosmos 967 Rocket 4.4 06:39:22 84° ENE 06:39:22 84° ENE 06:45:41 10° NNE
Cosmos 2154 Rocket 4.0 06:39:30 74° WNW 06:39:30 74° WNW 06:45:33 10° N
Cosmos 2327 Rocket 4.5 06:44:23 70° E 06:44:23 70° E 06:50:17 10° N
SL-16 R/B 3.1 06:40:16 10° N 06:45:38 41° ENE 06:46:35 38° E
SL-4 R/B 4.1 06:43:19 10° NW 06:45:06 24° NNW 06:45:06 24° NNW
Cosmos 1975 Rocket 4.4 06:49:56 36° NE 06:49:56 36° NE 06:52:43 10° NNE
Cosmos 2082 3.9 06:51:06 64° ENE 06:51:06 64° ENE 06:56:02 10° NNE
H-2A R/B 4.1 06:49:06 10° NNW 06:51:12 20° NW 06:51:12 20° NW
Cosmos 2227 Rocket 3.2 06:52:28 37° WNW 06:52:33 37° WNW 06:57:47 10° N
Cosmos 2237 Rocket 3.2 06:47:21 10° NW 06:51:07 36° WNW 06:51:07 36° WNW
SL-8 Rocket 4.3 06:57:10 51° ESE 06:57:35 52° E 07:03:32 10° NNE
IDEFIX/ARIANE 42P 4.0 06:53:07 10° NE 06:57:28 28° E 06:57:28 28° E
Meteor 1-11 4.4 07:04:41 64° E 07:04:41 64° E 07:10:25 10° NNE
Cosmos 962 Rocket 4.4 07:06:13 81° SSE 07:06:32 86° E 07:12:55 10° N
Cosmos 1455 Rocket 4.1 07:02:35 10° N 07:05:42 45° N 07:05:42 45° N
CZ-2D R/B 3.7 07:02:59 10° NE 07:07:15 24° E 07:07:38 24° ESE
Meteor 1-21 Rocket 4.5 07:07:55 60° WNW 07:07:55 60° WNW 07:13:17 10° N
Cosmos 1538 Rocket 4.2 07:03:47 10° NNW 07:08:16 66° N 07:08:16 66° N
Cosmos 2297 Rocket 4.5 07:11:26 11° WNW 07:13:21 13° NW 07:15:56 10° NNW
Cosmos 2219 3.8 07:15:09 44° WNW 07:15:11 44° WNW 07:20:34 10° N
Cosmos 372 Rocket 4.1 07:22:07 70° NNW 07:22:07 70° NNW 07:26:56 10° NNE
CENTAUR R/B 3.6 07:20:44 27° WNW 07:22:20 31° NW 07:28:12 10° NNE
NPP 4.1 07:19:15 10° NNE 07:24:29 51° E 07:24:45 51° ESE
Cosmos 2341 Rocket 3.8 07:27:49 74° SW 07:28:19 80° W 07:34:33 10° N
USA 238 DEB 3.9 07:28:50 44° SE 07:29:23 45° ESE 07:35:29 10° NE
USA 238 3.9 07:28:52 44° SE 07:29:26 45° ESE 07:35:31 10° NE
Helios 1A Rocket 4.4 07:33:25 29° NNW 07:33:25 29° NNW 07:35:23 10° NNW
ADEOS II 3.5 07:28:46 10° NE 07:33:13 28° E 07:34:18 26° ESE
Cosmos 1461 4.0 07:36:27 37° N 07:36:27 37° N 07:39:10 10° NNE
Cosmos 923 Rocket 4.2 07:31:51 10° N 07:37:04 65° ENE 07:37:48 57° ESE
Cosmos 1937 Rocket 3.7 07:38:33 61° WNW 07:38:33 61° WNW 07:43:41 10° N
Cosmos 864 Rocket 4.4 07:38:09 67° SSW 07:39:02 83° W 07:45:24 10° N
MOZ.5/SAFIR/RUBIN 5/SL-8 3.8 07:39:56 76° NNE 07:39:56 76° NNE 07:44:15 10° N
Cosmos 1898 Rocket 4.2 07:42:11 39° WNW 07:42:11 39° WNW 07:46:59 10° N
Meteor 2-1 Rocket 4.1 07:36:16 10° N 07:42:10 81° W 07:42:41 73° SSW
Cosmos 2263 Rocket 3.1 07:45:28 34° WNW 07:46:03 35° WNW 07:51:08 10° N
Resurs 1-4 Rocket 2.2 07:41:28 10° NNE 07:46:43 64° ESE 07:47:22 58° SE
Cosmos 1821 Rocket 3.9 08:00:01 52° S 08:01:38 84° E 08:07:47 10° N
Cosmos 2218 Rocket 4.2 08:03:34 47° WSW 08:04:38 52° W 08:10:40 10° N
Cosmos 1844 Rocket 2.9 08:04:20 49° SSE 08:05:36 62° ESE 08:11:07 10° NNE
Delta 2 Rocket 3.7 08:07:47 54° E 08:07:47 54° E 08:11:07 10° E
Cosmos 2366 rocket 4.5 08:10:21 40° WSW 08:11:29 43° W 08:17:26 10° N
ALOS 3.5 08:07:36 10° NNE 08:11:48 34° E 08:13:25 27° SE
Cosmos 1437 Rocket 2.8 08:12:41 74° N 08:12:41 74° N 08:16:10 10° N
NOSS 3-2 (C) 3.9 08:12:44 34° W 08:14:04 39° NW 08:19:33 10° NNE
Cosmos 1544 Rocket 4.2 08:14:24 10° NNW 08:18:04 41° WNW 08:18:04 41° WNW
Cosmos 1680 Rocket 3.4 08:14:04 10° NNW 08:19:14 69° WSW 08:20:14 54° SSW
USA 267 3.2 08:14:51 10° NE 08:21:24 77° SE 08:24:01 39° SSW
Cosmos 2112 Rocket 3.8 08:16:20 10° NNW 08:21:31 79° WSW 08:23:05 46° S
Cosmos 1818 3.4 08:16:18 10° NNW 08:21:47 83° WSW 08:24:48 27° SSE
Cosmos 2228 3.2 08:18:00 10° NNW 08:21:59 53° W 08:21:59 53° W
MSX 4.1 08:18:30 10° N 08:24:01 51° WNW 08:25:33 41° WSW
COSMOS 2441 4.4 08:23:26 10° N 08:28:13 66° WNW 08:29:14 51° SW
SL-16 R/B 3.6 08:25:01 10° NW 08:28:24 22° W 08:28:24 22° W
Cosmos 1603 4.1 08:28:55 10° NNW 08:34:38 65° ENE 08:40:16 10° SSE
SL-16 R/B 2.9 08:28:43 10° SSE 08:34:53 64° ENE 08:41:03 10° N
IDEFIX/ARIANE 42P 3.6 08:32:30 10° N 08:37:01 30° WNW 08:38:13 27° W
CZ-2C R/B 2.8 08:37:15 41° SW 08:38:33 51° W 08:43:45 10° NNW
Cosmos 1934 Rocket 4.2 08:36:19 23° S 08:40:22 72° E 08:46:43 10° N
SEDSat Delta rocket 3.3 08:41:06 41° SSE 08:41:06 41° SSE 08:44:39 10° ESE
Cosmos 2123 Rocket 4.5 08:36:45 10° N 08:42:51 59° E 08:48:57 10° SSE
CZ-2C R/B 3.5 08:38:13 10° N 08:43:18 46° WNW 08:44:53 35° WSW
Cosmos 1943 3.1 08:38:53 10° NNW 08:44:26 63° WSW 08:47:43 25° S
CZ-2D R/B 2.9 08:42:28 10° N 08:47:16 35° WNW 08:48:55 29° WSW
FENGYUN 3A 3.9 08:45:29 10° N 08:50:42 53° WNW 08:52:54 32° SW
Cosmos 1606 Rocket 3.5 08:49:46 10° N 08:54:12 73° W 08:56:15 31° S
Envisat 3.8 08:49:31 10° NNE 08:54:25 47° E 08:58:28 15° S
ASTEX 1 3.3 08:52:22 30° S 08:54:47 70° W 08:59:38 10° N
Cosmos 921 Rocket 2.8 08:50:47 10° NNW 08:55:00 88° ENE 08:57:56 19° SSE
Cosmos 1048 Rocket 4.4 08:50:46 10° N 08:55:58 65° ENE 09:01:13 10° SSE
Cosmos 1125 Rocket 3.5 08:57:56 28° SSW 09:00:46 87° WNW 09:06:06 10° NNE
CZ-2C R/B 3.6 09:01:00 10° NNE 09:05:11 35° E 09:09:24 10° SSE
Orbus 7S? 3.7 09:02:57 10° NW 09:06:23 85° SW 09:13:39 10° SE
Iridium 2 3.6 09:09:46 33° WNW 09:09:46 33° WNW 09:11:40 10° NNW
Cosmos 1726 Rocket 3.5 09:05:17 10° NNW 09:09:41 66° W 09:12:35 20° S
Cosmos 1238 Rocket 3.8 09:06:45 10° NNE 09:09:44 34° E 09:12:29 10° SSE
Cosmos 494 Rocket 4.0 09:06:46 10° NNW 09:11:55 61° WSW 09:17:04 10° S
ADEOS II 3.1 09:08:12 10° N 09:12:45 31° WNW 09:15:11 21° WSW
Cosmos 1812 2.5 09:09:12 10° N 09:12:47 82° E 09:15:37 15° S
Cosmos 2150 Rocket 4.3 09:09:20 16° S 09:13:22 64° ESE 09:18:35 10° NNE
Cosmos 2058 2.7 09:12:19 25° SSW 09:14:36 77° W 09:18:40 10° N
IRAS Rocket 4.3 09:11:42 10° N 09:17:08 64° WNW 09:20:58 20° SSW
SAR-Lupe-4 4.2 09:17:49 10° N 09:21:09 39° WNW 09:22:35 26° WSW
USA 81 4.0 09:19:02 10° N 09:24:17 71° W 09:29:31 10° S
YAOGAN 6 3.3 09:21:29 10° NNE 09:24:32 41° E 09:27:31 10° S
Resurs 1-4 Rocket 4.0 09:23:07 10° NNW 09:25:55 15° WNW 09:28:26 11° W
ATLAS 5 CENTAUR R/B 1.2 09:25:49 21° SSW 09:27:47 58° ESE 09:31:06 10° NE
NOSS 2-2 (E) 3.6 09:25:46 17° S 09:28:17 47° ESE 09:31:22 10° NE
Timation 2 Rocket 4.3 09:23:52 19° SW 09:28:48 61° WNW 09:35:11 10° NNE
Iridium 4 Rocket 3.2 09:24:25 10° N 09:28:57 77° W 09:33:53 10° S
UNK 3.8 09:25:47 10° S 09:30:19 58° W 09:34:51 10° NNW
Cosmos 1602 Rocket 4.5 09:33:22 10° SSE 09:37:39 49° E 09:41:58 10° NNE
Cosmos 724 4.3 09:33:40 10° NNW 09:39:30 85° ENE 09:45:23 10° SSE
Cosmos 1544 3.2 09:42:30 20° SW 09:43:39 29° W 09:46:00 10° NNW
Thor Agena Rocket 3.9 09:39:14 10° NNE 09:44:30 69° ESE 09:49:43 10° S
NOSS 2-3 (D) 3.3 09:42:01 13° SSW 09:45:12 70° ESE 09:48:57 10° NE
NOAA 11 4.3 09:40:45 10° N 09:46:09 61° WNW 09:51:29 10° SSW
Delta 2 Rocket 3.4 09:43:37 10° W 09:47:36 58° SSW 09:51:59 10° ESE
Cosmos 2058 Rocket 3.4 09:43:40 10° NNW 09:47:55 47° W 09:52:06 10° SSW
ALOS 3.8 09:45:24 10° NNW 09:48:43 20° WNW 09:51:42 11° WSW
Cosmos 1844 Rocket 4.5 09:46:21 10° W 09:49:54 17° NW 09:53:28 10° NNW
Cosmos 1758 Rocket 3.6 09:45:29 10° S 09:49:54 83° E 09:54:20 10° N
Cosmos 2298 Rocket 4.4 09:49:12 12° SW 09:54:01 51° WNW 09:59:13 10° N
Cosmos 1666 4.3 09:51:10 10° SSE 09:54:12 30° E 09:57:14 10° NNE
BREEZE-M DEB (TANK) 4.2 09:54:25 11° WSW 09:57:45 63° NNW 10:09:50 10° NE
Cosmos 1607 4.1 09:55:11 10° NW 10:01:19 51° WSW 10:07:17 10° S
NOSS 2-2 (C) 3.9 10:00:13 11° WSW 10:03:11 31° NW 10:06:02 10° N
USA 267 4.5 09:58:22 10° NNE 10:03:57 31° NNW 10:09:32 10° W
Cosmos 1500 3.2 10:05:11 10° S 10:08:36 71° E 10:12:01 10° NNE
Cosmos 1626 Rocket 4.4 10:07:38 10° SW 10:11:40 34° WNW 10:15:43 10° NNW
Cosmos 2278 Rocket 2.9 10:06:12 10° S 10:11:43 57° ESE 10:17:17 10° NNE
NOSS 2-2 (D) 3.4 10:08:30 10° SW 10:11:56 44° WNW 10:14:58 10° NNE
NOSS 2-3 (E) 3.7 10:08:56 10° SW 10:12:27 45° NW 10:16:06 10° NNE
Meteor 2-2 Rocket 4.2 10:07:28 10° N 10:13:06 79° W 10:18:43 10° S
H-2A R/B 2.4 10:08:39 10° NNE 10:13:57 70° ESE 10:19:04 10° S
USA 276 4.0 10:11:53 10° S 10:14:10 21° SE 10:16:25 10° E
